K5TWC Weather Reports


time (UTC)temp
C
wind
direction
speed
KPH
gust
KPH
rain 1hr
cm
rain 24hr
cm
rain mn
cm
humidity
%
barometer
mb
20260505113507 21 220 1.6 17.7 0.00 0.00 0.00 85 1004.5
20260505113027 21 191 6.4 17.7 0.00 0.00 0.00 85 1004.4
20260505112512 21 204 3.2 22.5 0.00 0.00 0.00 85 1004.4
20260505112007 21 26 1.6 22.5 0.00 0.00 0.00 85 1004.5
20260505111522 21 360 3.2 17.7 0.00 0.00 0.00 85 1004.4
20260505111007 21 232 3.2 19.3 0.00 0.00 0.00 85 1004.3
20260505110507 21 231 6.4 19.3 0.00 0.00 0.00 85 1004.3
20260505102010 21 236 6.4 16.1 0.00 0.00 0.00 85 1004.7
20260505101527 21 167 3.2 17.7 0.00 0.00 0.00 85 1004.7
20260505101010 21 211 4.8 17.7 0.00 0.00 0.00 85 1004.7
20260505100504 21 209 6.4 17.7 0.00 0.00 0.00 85 1004.7
20260505100026 21 151 4.8 14.5 0.00 0.00 0.00 85 1004.6
20260505095507 21 231 3.2 16.1 0.00 0.00 0.00 85 1004.8
20260505095007 21 186 4.8 16.1 0.00 0.00 0.00 85 1004.9
20260505094503 21 238 3.2 14.5 0.00 0.00 0.00 85 1005.0
20260505094002 21 195 3.2 16.1 0.00 0.00 0.00 85 1005.0
20260505093502 21 229 6.4 16.1 0.00 0.00 0.00 85 1005.0
20260505093008 21 9 4.8 19.3 0.00 0.00 0.00 85 1005.0
20260505092502 21 202 3.2 19.3 0.00 0.00 0.00 85 1005.1
20260505092002 21 360 3.2 16.1 0.00 0.00 0.00 85 1005.1
20260505091510 21 175 3.2 16.1 0.00 0.00 0.00 85 1005.1
20260505091004 21 360 1.6 16.1 0.00 0.00 0.00 85 1005.2
20260505090508 21 171 1.6 22.5 0.00 0.00 0.00 85 1005.0
20260505090016 21 207 6.4 22.5 0.00 0.00 0.00 85 1005.1
20260505085507 21 196 4.8 22.5 0.00 0.00 0.00 85 1005.1
20260505085010 21 231 6.4 17.7 0.00 0.00 0.00 85 1005.0
20260505084522 21 360 0.0 17.7 0.00 0.00 0.00 85 1005.0
20260505084010 21 228 4.8 22.5 0.00 0.00 0.00 85 1005.0
20260505083508 21 194 4.8 22.5 0.00 0.00 0.00 85 1005.1
20260505083007 21 142 4.8 20.9 0.00 0.00 0.00 85 1005.1
20260505082504 21 173 3.2 17.7 0.00 0.00 0.00 85 1005.1
20260505082002 21 212 4.8 20.9 0.00 0.00 0.00 85 1005.1
20260505081509 21 213 4.8 20.9 0.00 0.00 0.00 85 1005.1
20260505081005 21 9 4.8 20.9 0.00 0.00 0.00 84 1005.1
20260505080506 21 190 6.4 16.1 0.00 0.00 0.00 84 1005.1
20260505080014 21 200 4.8 16.1 0.00 0.00 0.00 84 1005.2
20260505075506 21 248 1.6 22.5 0.00 0.00 0.00 84 1005.3
20260505075009 21 182 3.2 22.5 0.00 0.00 0.00 84 1005.4
20260505074518 21 153 3.2 16.1 0.00 0.00 0.00 84 1005.5
20260505074006 21 190 1.6 16.1 0.00 0.00 0.00 84 1005.6
20260505073507 21 188 3.2 12.9 0.00 0.00 0.00 84 1005.6
20260505073029 21 170 3.2 16.1 0.00 0.00 0.00 83 1005.8
20260505072508 21 203 1.6 16.1 0.00 0.00 0.00 83 1005.9
20260505072005 21 150 3.2 14.5 0.00 0.00 0.00 83 1005.9
20260505071513 22 176 4.8 16.1 0.00 0.00 0.00 83 1005.9
20260505071004 21 159 1.6 17.7 0.00 0.00 0.00 83 1006.0
20260505070503 22 181 4.8 17.7 0.00 0.00 0.00 83 1006.1
20260505070012 22 196 6.4 17.7 0.00 0.00 0.00 83 1006.2
20260505065503 22 198 3.2 14.5 0.00 0.00 0.00 83 1006.3
20260505065002 21 174 3.2 14.5 0.00 0.00 0.00 82 1006.4
20260505064521 22 182 1.6 12.9 0.00 0.00 0.00 82 1006.5
20260505064003 21 167 3.2 16.1 0.00 0.00 0.00 82 1006.4
20260505063504 21 360 3.2 16.1 0.00 0.00 0.00 82 1006.4
20260505063020 21 210 4.8 19.3 0.00 0.00 0.00 82 1006.3
20260505062509 21 191 3.2 19.3 0.00 0.00 0.00 82 1006.4
20260505062010 21 202 4.8 17.7 0.00 0.00 0.00 82 1006.5
20260505061523 21 199 3.2 17.7 0.00 0.00 0.00 81 1006.5
20260505061017 22 176 6.4 16.1 0.00 0.00 0.00 81 1006.5
20260505060510 22 176 3.2 17.7 0.00 0.00 0.00 81 1006.5
20260505060008 22 166 4.8 17.7 0.00 0.00 0.00 81 1006.6
20260505055504 22 178 4.8 16.1 0.00 0.00 0.00 81 1006.6
20260505055004 22 360 6.4 16.1 0.00 0.00 0.00 81 1006.7
20260505054514 22 360 6.4 17.7 0.00 0.00 0.00 80 1006.6
20260505054008 22 225 4.8 17.7 0.00 0.00 0.00 80 1006.7
20260505053506 22 171 4.8 17.7 0.00 0.00 0.00 80 1006.8
20260505053023 22 171 3.2 17.7 0.00 0.00 0.00 80 1006.8
20260505052511 22 140 4.8 17.7 0.00 0.00 0.00 79 1006.8
20260505052006 22 198 3.2 17.7 0.00 0.00 0.00 79 1006.8
20260505051533 22 360 4.8 17.7 0.00 0.00 0.00 79 1006.8
20260505051011 22 144 6.4 17.7 0.00 0.00 0.00 78 1006.9
20260505050509 22 360 4.8 16.1 0.00 0.00 0.00 78 1006.9
20260505041521 22 208 4.8 16.1 0.00 0.00 0.00 76 1007.1
20260505041006 22 195 4.8 20.9 0.00 0.00 0.00 76 1007.0
20260505040506 22 169 4.8 22.5 0.00 0.00 0.00 75 1007.2
20260505040036 22 202 6.4 22.5 0.00 0.00 0.00 75 1007.1
20260505035507 22 182 4.8 16.1 0.00 0.00 0.00 75 1007.0
20260505035007 22 155 8.0 16.1 0.00 0.00 0.00 75 1006.9
20260505034524 23 215 3.2 16.1 0.00 0.00 0.00 74 1007.0
20260505034012 23 169 4.8 16.1 0.00 0.00 0.00 74 1006.9
20260505033507 23 197 4.8 12.9 0.00 0.00 0.00 74 1007.0
20260505033031 23 158 1.6 14.5 0.00 0.00 0.00 74 1007.1
20260505032504 23 360 3.2 22.5 0.00 0.00 0.00 74 1007.1
20260505032006 23 226 4.8 22.5 0.00 0.00 0.00 73 1007.1
20260505031514 23 149 6.4 17.7 0.00 0.00 0.00 73 1007.1
20260505031005 23 360 1.6 14.5 0.00 0.00 0.00 73 1007.1
20260505030506 23 360 4.8 17.7 0.00 0.00 0.00 73 1007.1
20260505030026 23 217 4.8 19.3 0.00 0.00 0.00 73 1007.1
20260505025508 23 193 6.4 19.3 0.00 0.00 0.00 73 1007.1
20260505025011 23 196 1.6 16.1 0.00 0.00 0.00 73 1007.0
20260505024522 23 191 3.2 12.9 0.00 0.00 0.00 72 1007.1
20260505024007 23 196 1.6 14.5 0.00 0.00 0.00 72 1007.0
20260505023508 23 199 4.8 14.5 0.00 0.00 0.00 72 1006.9
20260505023024 23 138 3.2 11.3 0.00 0.00 0.00 72 1006.8
20260505022509 23 171 3.2 11.3 0.00 0.00 0.00 72 1007.0
20260505022011 23 360 1.6 9.7 0.00 0.00 0.00 72 1007.0
20260505021512 23 204 4.8 12.9 0.00 0.00 0.00 71 1006.9
20260505021005 23 158 3.2 19.3 0.00 0.00 0.00 71 1007.0
20260505020505 23 210 4.8 19.3 0.00 0.00 0.00 71 1006.9
20260505020019 23 360 6.4 19.3 0.00 0.00 0.00 71 1006.9
20260505015506 23 195 3.2 14.5 0.00 0.00 0.00 71 1007.0
20260505015008 23 217 3.2 14.5 0.00 0.00 0.00 70 1006.9
20260505014524 23 210 3.2 12.9 0.00 0.00 0.00 70 1006.9
20260505014008 24 178 3.2 12.9 0.00 0.00 0.00 70 1006.9
20260505013507 24 154 1.6 12.9 0.00 0.00 0.00 70 1007.0
20260505013029 24 159 1.6 16.1 0.00 0.00 0.00 69 1007.0
20260505012508 24 222 3.2 16.1 0.00 0.00 0.00 69 1007.0
20260505012010 24 194 3.2 16.1 0.00 0.00 0.00 69 1006.9
20260505011528 24 161 3.2 16.1 0.00 0.00 0.00 68 1007.0
20260505011010 24 360 4.8 17.7 0.00 0.00 0.00 68 1006.9
20260505010502 25 175 3.2 17.7 0.00 0.00 0.00 68 1006.7
20260505010018 25 190 4.8 17.7 0.00 0.00 0.00 67 1006.7
20260505005506 25 127 4.8 17.7 0.00 0.00 0.00 67 1006.7
20260505005006 25 143 3.2 16.1 0.00 0.00 0.00 66 1006.8
20260505004520 25 360 8.0 16.1 0.00 0.00 0.00 66 1006.8
20260505004007 25 211 4.8 16.1 0.00 0.00 0.00 65 1006.9
20260505003513 25 104 3.2 16.1 0.00 0.00 0.00 65 1006.9
20260505003023 25 173 3.2 17.7 0.00 0.00 0.00 65 1006.9
20260505002509 26 189 1.6 20.9 0.00 0.00 0.00 64 1006.9
20260505002008 26 165 6.4 20.9 0.00 0.00 0.00 64 1006.9
20260505001526 26 126 4.8 16.1 0.00 0.00 0.00 63 1007.0
20260505001009 26 204 6.4 16.1 0.00 0.00 0.00 63 1007.0
20260505000507 26 124 3.2 19.3 0.00 0.00 0.00 63 1007.0
20260505000029 26 196 6.4 19.3 0.00 0.00 0.00 63 1007.0
20260504235504 26 310 6.4 14.5 0.00 0.00 0.00 63 1007.1
20260504235004 26 294 1.6 24.1 0.00 0.00 0.00 63 1007.2
20260504234513 26 163 6.4 30.6 0.00 0.00 0.00 63 1007.2
20260504234002 26 185 6.4 30.6 0.00 0.00 0.00 62 1007.1
20260504233503 26 360 8.0 30.6 0.00 0.00 0.00 62 1007.0
20260504233007 26 360 6.4 19.3 0.00 0.00 0.00 62 1007.2
20260504232504 26 213 4.8 17.7 0.00 0.00 0.00 61 1007.1
20260504232003 26 221 4.8 17.7 0.00 0.00 0.00 61 1007.1
20260504231507 27 226 4.8 19.3 0.00 0.00 0.00 60 1007.3
20260504231004 27 360 6.4 19.3 0.00 0.00 0.00 59 1007.3
20260504230503 27 175 8.0 19.3 0.00 0.00 0.00 59 1007.3
20260504230011 27 232 6.4 19.3 0.00 0.00 0.00 60 1007.3
20260504225503 27 179 4.8 22.5 0.00 0.00 0.00 59 1007.5
20260504225004 27 360 4.8 22.5 0.00 0.00 0.00 59 1007.5
20260504224506 27 360 6.4 24.1 0.00 0.00 0.00 59 1007.5
20260504223518 27 142 6.4 25.7 0.00 0.00 0.00 58 1007.5
20260504223009 27 360 6.4 25.7 0.00 0.00 0.00 58 1007.3
20260504222505 27 360 8.0 24.1 0.00 0.00 0.00 58 1007.5
20260504222003 27 360 6.4 24.1 0.00 0.00 0.00 58 1007.4
20260504221506 27 195 9.7 24.1 0.00 0.00 0.00 58 1007.6
20260504221003 27 159 11.3 24.1 0.00 0.00 0.00 58 1007.6
20260504220504 27 360 8.0 25.7 0.00 0.00 0.00 58 1007.8
20260504220006 27 360 6.4 25.7 0.00 0.00 0.00 57 1007.8
20260504215504 28 360 8.0 20.9 0.00 0.00 0.00 57 1008.0
20260504215004 27 115 1.6 24.1 0.00 0.00 0.00 59 1007.9
20260504214509 27 165 3.2 24.1 0.00 0.00 0.00 58 1008.0
20260504214004 27 360 6.4 20.9 0.00 0.00 0.00 57 1008.2
20260504213504 27 196 4.8 25.7 0.00 0.00 0.00 57 1008.2
20260504213009 27 99 9.7 25.7 0.00 0.00 0.00 57 1008.1
20260504212504 27 360 4.8 22.5 0.00 0.00 0.00 57 1008.3
20260504212003 27 130 6.4 27.4 0.00 0.00 0.00 56 1008.8
20260504211509 27 360 6.4 27.4 0.00 0.00 0.00 57 1008.5
20260504211005 27 182 9.7 25.7 0.00 0.00 0.00 56 1009.0
20260504210505 27 360 8.0 19.3 0.00 0.00 0.00 55 1008.9
20260504210005 27 182 8.0 25.7 0.00 0.00 0.00 56 1008.8
20260504205505 27 360 11.3 27.4 0.00 0.00 0.00 55 1009.0
20260504205005 27 360 8.0 30.6 0.00 0.00 0.00 55 1009.1
20260504204508 27 119 6.4 30.6 0.00 0.00 0.00 55 1009.2
20260504204004 27 261 8.0 24.1 0.00 0.00 0.00 54 1009.4
20260504203504 27 186 4.8 17.7 0.00 0.00 0.00 54 1009.3
20260504202505 28 202 9.7 17.7 0.00 0.00 0.00 52 1009.7
20260504202006 28 155 3.2 16.1 0.00 0.00 0.00 53 1009.8
20260504201511 28 360 3.2 24.1 0.00 0.00 0.00 53 1009.8
20260504201004 27 180 6.4 29.0 0.00 0.00 0.00 53 1010.0
20260504200506 27 116 9.7 29.0 0.00 0.00 0.00 53 1010.2
20260504200023 27 180 9.7 22.5 0.00 0.00 0.00 52 1010.1
20260504195504 27 360 9.7 19.3 0.00 0.00 0.00 52 1010.2
20260504195003 27 147 9.7 17.7 0.00 0.00 0.00 53 1010.2
20260504194508 27 169 1.6 22.5 0.00 0.00 0.00 53 1010.3
20260504194005 27 277 6.4 24.1 0.00 0.00 0.00 53 1010.4
20260504193504 27 160 4.8 25.7 0.00 0.00 0.00 53 1010.4
20260504193010 27 115 9.7 25.7 0.00 0.00 0.00 53 1010.4
20260504192505 27 33 6.4 24.1 0.00 0.00 0.00 53 1010.8
20260504192007 27 360 9.7 24.1 0.00 0.00 0.00 52 1010.7
20260504191527 27 176 9.7 24.1 0.00 0.00 0.00 51 1010.8
20260504191005 27 360 4.8 17.7 0.00 0.00 0.00 52 1010.9
20260504190507 27 109 3.2 20.9 0.00 0.00 0.00 52 1010.9
20260504190015 27 360 4.8 20.9 0.00 0.00 0.00 52 1011.0
20260504185508 27 352 4.8 20.9 0.00 0.00 0.00 52 1010.9
20260504185004 27 157 3.2 29.0 0.00 0.00 0.00 51 1011.0
20260504184515 27 220 8.0 29.0 0.00 0.00 0.00 51 1011.0
20260504184004 27 360 8.0 24.1 0.00 0.00 0.00 50 1011.2
20260504183504 27 123 6.4 24.1 0.00 0.00 0.00 49 1011.2
20260504183012 27 360 12.9 24.1 0.00 0.00 0.00 49 1011.3
20260504182503 27 360 4.8 16.1 0.00 0.00 0.00 50 1011.4
20260504182006 27 177 8.0 22.5 0.00 0.00 0.00 50 1011.6
20260504181522 26 180 4.8 22.5 0.00 0.00 0.00 50 1011.7
20260504181005 26 166 8.0 20.9 0.00 0.00 0.00 50 1011.7
20260504180511 26 154 4.8 17.7 0.00 0.00 0.00 50 1011.7
20260504180020 26 190 4.8 24.1 0.00 0.00 0.00 50 1011.9
20260504175503 26 186 8.0 24.1 0.00 0.00 0.00 50 1012.0
20260504175004 26 163 11.3 24.1 0.00 0.00 0.00 50 1012.1
20260504174519 26 186 4.8 19.3 0.00 0.00 0.00 51 1012.1
20260504174004 26 229 4.8 19.3 0.00 0.00 0.00 52 1012.2
20260504173506 25 360 4.8 19.3 0.00 0.00 0.00 52 1012.2
20260504173018 25 169 8.0 19.3 0.00 0.00 0.00 52 1012.3
20260504172509 25 360 9.7 24.1 0.00 0.00 0.00 52 1012.4
20260504172002 25 164 6.4 19.3 0.00 0.00 0.00 53 1012.3
20260504171508 25 144 4.8 20.9 0.00 0.00 0.00 53 1012.5
20260504171008 25 360 6.4 20.9 0.00 0.00 0.00 53 1012.7
20260504170504 25 126 9.7 24.1 0.00 0.00 0.00 53 1012.7
20260504151006 22 142 1.6 16.1 0.00 0.00 0.00 64 1014.0
20260504150509 22 148 3.2 30.6 0.00 0.00 0.00 64 1013.9
20260504141013 20 207 4.8 19.3 0.00 0.00 0.00 67 1014.3
20260504140508 20 142 4.8 19.3 0.00 0.00 0.00 67 1014.2
20260504130510 18 257 0.0 16.1 0.00 0.00 0.00 73 1014.4